Regional Weather Roundup
Issued by NWS

Home | Current Version | Previous Version | Graphics & Text | Print | Product List | Glossary On
Versions: 1 2 3 4 5 6 7 8 9 10 11 12 13 14 15 16 17 18 19 20 21 22 23 24 25 26 27 28 29 30 31 32 33 34 35 36 37 38 39 40 41 42 43 44 45 46 47 48 49 50
000
ASUS43 KOAX 180702
RWRNE

WEATHER ROUNDUP FOR NEBRASKA
NATIONAL WEATHER SERVICE OMAHA NE
200 AM CDT SAT APR 18 2015

NOTES: SATELLITE DATA IS BEING USED TO AUGMENT CLOUD COVER ABOVE
       12000 FEET.
       "FAIR" INDICATES FEW OR NO CLOUDS BELOW 12,000 FEET WITH NO
       SIGNIFICANT WEATHER AND/OR OBSTRUCTIONS TO VISIBILITY.

  * THESE STATIONS DO NOT REPORT WEATHER SUCH AS RAIN...SNOW OR FOG.

NEZ001>004-019>022-054>056-180800-
NEBRASKA PANHANDLE

CITY           SKY/WX    TMP DP  RH WIND       PRES   REMARKS
SCOTTSBLUFF    LGT RAIN  42  42 100 W12       30.04F
ALLIANCE       HVY RAIN  47  45  93 NE12      30.02F FOG
CHADRON        CLOUDY    48  46  93 NE6       30.04F
SIDNEY         LGT RAIN  41  39  93 NW16      30.02F
$$

NEZ057>060-069>072-079>082-180800-
SOUTHWEST NEBRASKA

CITY           SKY/WX    TMP DP  RH WIND       PRES   REMARKS
NORTH PLATTE   LGT RAIN  51  49  92 CALM      29.97F
IMPERIAL       LGT RAIN  49  46  90 SE9       29.98S
LEXINGTON      TSTM      55  52  90 SW10G26   29.97R
MCCOOK         CLOUDY    52  49  89 CALM      29.97F
$$

NEZ005>010-023>029-035>040-094-180800-
NORTH CENTRAL NEBRASKA

CITY           SKY/WX    TMP DP  RH WIND       PRES   REMARKS
VALENTINE      CLOUDY    51  47  86 NE8       30.03F
AINSWORTH      CLOUDY    52  51  97 NE6       30.03F
BROKEN BOW     CLOUDY    56  52  86 E13       29.96F
ORD            MOCLDY    55  51  86 CALM      29.97F
$$

NEZ041-046>049-061>064-073>077-083>087-180800-
SOUTH CENTRAL NEBRASKA

CITY           SKY/WX    TMP DP  RH WIND       PRES   REMARKS
GRAND ISLAND   CLOUDY    54  52  93 NE3       29.98S
HASTINGS       CLOUDY    56  53  90 E7        29.96F
KEARNEY *      CLOUDY    55  52  88 E8        29.95F
YORK           CLOUDY    55  54  94 E3        29.97F
$$

NEZ011>018-030>034-042>045-180800-
NORTHEAST NEBRASKA

CITY           SKY/WX    TMP DP  RH WIND       PRES   REMARKS
BLAIR          CLOUDY    64  52  66 CALM      29.98S
COLUMBUS *     CLOUDY    61  48  63 NE8       29.99F
FREMONT        LGT RAIN  63  56  79 CALM      29.99S
TEKAMAH        CLOUDY    62  49  62 NW6       29.98S
$$

NEZ050>053-065>068-078-088>093-180800-
SOUTHEAST NEBRASKA

CITY           SKY/WX    TMP DP  RH WIND       PRES   REMARKS
LINCOLN        CLOUDY    63  55  75 CALM      29.97S
OMAHA EPPLEY   CLOUDY    67  54  63 SE8       29.97S
FALLS CITY     CLOUDY    60  55  83 E3        29.95F
PLATTSMOUTH    CLOUDY    63  53  71 E7        29.97F
$$

NEZ044-045-051>053-067-180800-
OMAHA AREA

CITY           SKY/WX    TMP DP  RH WIND       PRES   REMARKS
OMAHA EPPLEY   CLOUDY    67  54  63 SE8       29.97S
BLAIR          CLOUDY    64  52  66 CALM      29.98S
FREMONT        LGT RAIN  63  56  79 CALM      29.99S
OFFUTT AFB     CLOUDY    63  55  75 E6        29.96F
PLATTSMOUTH    CLOUDY    63  53  71 E7        29.97F
$$



USA.gov is the U.S. government's official web portal to all federal, state and local government web resources and services.